Weather Roundup
Issued by NWS

Home | Current Version | Previous Version | Graphics & Text | Print | Product List | Glossary Off
Versions: 1 2 3 4 5 6 7 8 9 10 11 12 13 14 15 16 17 18 19 20 21 22 23 24 25 26 27 28 29 30 31 32 33 34 35 36 37 38 39 40 41 42 43 44 45 46 47 48 49 50

974
NZUS93 KARX 071110
HRRWXR

CURRENT HOURLY OBSERVATIONS ACROSS
MUCH OF THE UPPER MISSISSIPPI VALLEY
NATIONAL WEATHER SERVICE LA CROSSE WI
500 AM CST SUN FEB 07 2016


...SOUTHEAST MINNESOTA...


CITY           SKY/WX    TMP DP  RH WIND       PRES   REMARKS
ROCHESTER      CLOUDY    31  26  82 W16       29.69S WCI  20
ROCHESTER/MAYO FAIR      34  28  80 W12G18    29.68S WCI  25
WINONA         PTCLDY    36  30  80 CALM      29.71S
AUSTIN         CLOUDY    34  28  80 W8        29.71F WCI  27
ALBERT LEA     CLEAR     34  27  75 W12G17    29.71F WCI  25
DODGE CENTER   CLOUDY    30  27  86 W12       29.68S WCI  21
PRESTON        PTCLDY    32  26  80 SW15G22   29.71S WCI  22
OWATONNA       CLEAR     30  25  80 SW10      29.69F WCI  21
FARIBAULT      CLEAR     34  27  75 SW7       29.68F WCI  28
$$

...ELSEWHERE IN MINNESOTA...


CITY           SKY/WX    TMP DP  RH WIND       PRES   REMARKS
MINNEAPOLIS    MOCLDY    33  27  78 SW7       29.64S WCI  27
INTNL FALLS    CLOUDY    34  32  92 S6        29.37F WCI  29
DULUTH         PTCLDY    31  28  89 SW13      29.47F WCI  21
RED WING       CLEAR     30  27  86 W3        29.65F
REDWOOD FALLS  CLOUDY    37  28  70 W22       29.71R WCI  26
MANKATO        PTCLDY    36  27  69 W10       29.70S WCI  28
WORTHINGTON    CLEAR     34  25  69 W25       29.79S WCI  21
FAIRMONT       CLEAR     34  25  69 W20       29.74S WCI  22
$$

...SOUTHWEST WISCONSIN...


CITY           SKY/WX    TMP DP  RH WIND       PRES   REMARKS
LA CROSSE      CLOUDY    36  28  73 S10       29.71F WCI  28
PRAIRIE DU CHI CLOUDY    37  28  70 W7        29.77R WCI  32
BOSCOBEL       CLOUDY    39  31  72 W12       29.77S WCI  32
LONE ROCK      CLOUDY    38  29  70 SW10      29.75F WCI  31
PLATTEVILLE    CLOUDY    36  31  82 SW15      29.78F WCI  27
FORT MC COY    CLOUDY    36  30  80 SW5       29.71F WCI  32
CAMP DOUGLAS   CLOUDY    36  36  99 SW8       29.69F WCI  30
VIROQUA        CLOUDY    34  30  84 SW12G18   29.71F WCI  26
WIS DELLS      CLOUDY    36  29  75 SW16G22   29.70F WCI  26
$$

...ELSEWHERE IN WISCONSIN...


CITY           SKY/WX    TMP DP  RH WIND       PRES   REMARKS
MILWAUKEE      MOCLDY    36  29  75 S8        29.82F WCI  30
MADISON        CLOUDY    37  29  72 SW10      29.77F WCI  30
GREEN BAY      CLOUDY    36  30  79 S14       29.72F WCI  27
EAU CLAIRE     MOCLDY    30  25  81 S8        29.64F WCI  22
BLACK RVR FLS  CLOUDY    34  29  80 SW5       29.68F WCI  30
MEDFORD        LGT SNOW  30  29  97 S8        29.63F WCI  22
WAUSAU         CLOUDY    32  28  85 S6        29.65F WCI  26
WIS RAPIDS     CLOUDY    32  27  81 S8        29.70F WCI  25
MARSHFIELD     CLOUDY    32  26  78 SW9       29.65F WCI  24
RICE LAKE      CLOUDY    32  29  88 S9        29.62S WCI  24
$$

...NORTHEAST IOWA...


CITY           SKY/WX    TMP DP  RH WIND       PRES   REMARKS
WATERLOO       CLOUDY    35  28  75 SW13      29.78S WCI  26
DUBUQUE        CLOUDY    35  29  78 SW20      29.78F WCI  24
DECORAH        MOCLDY    36  30  80 SW8G15    29.72F WCI  29
MASON CITY     CLEAR     33  27  78 W18       29.76F WCI  22
CHARLES CITY   CLOUDY    34  32  93 W14       29.76S WCI  24
OELWEIN        CLOUDY    36  30  80 SW13      29.77R WCI  27
$$

...ELSEWHERE IN IOWA...


CITY           SKY/WX    TMP DP  RH WIND       PRES   REMARKS
DES MOINES     CLOUDY    36  27  69 W12       29.86S WCI  28
IOWA CITY      PTCLDY    37  29  72 S9        29.85F WCI  30
FORT DODGE     CLEAR     34  25  69 W8        29.82S WCI  27
MARSHALLTOWN   CLOUDY    35  28  75 W16       29.81R WCI  25
CEDAR RAPIDS   CLOUDY    36  30  79 SW10      29.81F WCI  28
$$

...NORTHERN ILLINOIS...


CITY           SKY/WX    TMP DP  RH WIND       PRES   REMARKS
CHICAGO-OHARE  CLOUDY    38  29  70 SW16      29.89F WCI  29
CHICAGO-MIDWAY CLOUDY    39  28  64 S12       29.91F WCI  32
MOLINE         CLOUDY    39  28  64 SW14      29.86F WCI  31
ROCKFORD       MOCLDY    36  30  79 S12       29.87F WCI  28
PEORIA         CLOUDY    36  28  73 S9        29.95F WCI  29
$$

NOTE: "FAIR" INDICATES FEW OR NO CLOUDS BELOW 12,000 FEET WITH NO
SIGNIFICANT WEATHER AND/OR OBSTRUCTIONS TO VISIBILITY. WIND
SPEEDS ARE IN MILES-PER-HOUR.




USA.gov is the U.S. government's official web portal to all federal, state and local government web resources and services.